Location: Bittelbronn
(48.4454°N, 8.5870°E)
Time: 16:11:09
(UTC+00:00)

Cosmos 540 Rocket - Pass Details

Date: 23 May 2024
Orbit: 737 x 751 km, 74.1° (Epoch: 16 June)

Event Time Altitude Azimuth Distance (km) Brightness Sun altitude
Rises 01:08:24 0° 329° (NNW) 3,212 7.2 -17.0°
Reaches altitude 10° 01:11:00 10° 318° (NW) 2,283 6.2 -16.8°
Maximum altitude 01:15:26 29° 259° (W) 1,346 4.4 -16.4°
Enters shadow 01:16:56 25° 230° (SW) 1,482 4.4 -16.3°
